Home   Weather   Montgomery   Past weeks

Flag for USA Past Weather in Montgomery, Alabama, USA — Yesterday and Last 2 Weeks

Now
58 °F

Sunny.


Feels Like: 58 °F
Forecast: 54 / 83 °F
Wind: 1 mph from South

Location: Maxwell Air Force Base / Montgomery

Current Time: Oct 1, 2016 at 8:58:13 AM

Latest Report: Oct 1, 2016 at 7:58 AM


Visibility: 10 mi

Pressure: 30.10 "Hg

Humidity: 99%

Dew Point: 57 °F

Location of MontgomeryLocation

Past Weather in Montgomery — Graph

°F

Montgomery Temperature Yesterday

Maximum temperature yesterday: 78 °F (at 3:58 PM)
Minimum temperature yesterday: 53 °F (at 6:58 AM)
Average temperature yesterday: 65 °F

High & Low Weather Summary for the Past Weeks

 TemperatureHumidityPressure
High96 °F (Sep 25, 2:58 PM)100% (Sep 17, 6:03 PM)30.12 "Hg (Sep 17, 6:03 PM)
Low52 °F (Oct 1, 6:58 AM)27% (Sep 29, 3:58 PM)29.86 "Hg (Sep 27, 3:58 PM)
Average78 °F72%30.01 "Hg
* Reported Sep 16 7:58 AM — Oct 1 7:58 AM, Montgomery, Weather by CustomWeather, © 2016

Note: Actual official high and low records may vary slightly from our data, if they occured in-between our weather recording intervals... More about our weather records

Advertising

Montgomery Weather History for the Previous 24 Hours

Scroll right to see more
 ConditionsComfort  
Time TempWeatherWind HumidityBarometerVisibility
7:58 AM
Sat, Oct 1
58 °FSunny.1 mph99%30.10 "Hg10 mi
6:58 AM52 °FSunny.2 mph99%30.08 "Hg10 mi
5:58 AM53 °FClear.1 mph99%30.06 "Hg9 mi
4:58 AM54 °FFog.No wind99%30.06 "Hg0 mi
4:03 AM54 °FFog.No wind100%30.05 "Hg0 mi
3:58 AM54 °FFog.2 mph97%30.06 "Hg0 mi
2:58 AM54 °FClear.No wind94%30.06 "Hg10 mi
1:58 AM54 °FClear.No wind94%30.06 "Hg10 mi
12:58 AM55 °FClear.No wind92%30.06 "Hg10 mi
11:58 PM
Fri, Sep 30
57 °FClear.No wind92%30.08 "Hg10 mi
10:58 PM58 °FClear.2 mph87%30.06 "Hg10 mi
9:58 PM60 °FClear.1 mph81%30.05 "Hg10 mi
8:58 PM62 °FClear.No wind76%30.05 "Hg10 mi
7:58 PM65 °FClear.2 mph64%30.03 "Hg10 mi
6:58 PM71 °FClear.3 mph52%30.03 "Hg10 mi
5:58 PM75 °FSunny.5 mph42%30.03 "Hg10 mi
4:58 PM77 °FSunny.6 mph36%30.03 "Hg10 mi
3:58 PM78 °FPassing clouds.6 mph37%30.02 "Hg10 mi
2:58 PM76 °FSunny.7 mph40%30.03 "Hg10 mi
1:58 PM76 °FScattered clouds.10 mph39%30.04 "Hg10 mi
12:58 PM75 °FScattered clouds.6 mph40%30.07 "Hg10 mi
11:58 AM73 °FPassing clouds.1 mph45%30.09 "Hg10 mi
10:58 AM70 °FSunny.6 mph51%30.11 "Hg10 mi
9:58 AM67 °FSunny.6 mph58%30.11 "Hg10 mi
8:58 AM64 °FSunny.6 mph66%30.11 "Hg10 mi
Weather by CustomWeather, © 2016

See weather overviewHow to use our weather pages